Content
SEND FEEDBACK

Daily
Averages
Monthly
Summary
Switzerland

GENEVA, SWITZERLAND


Home > Europe > Switzerland
Elevation: 1364 feet     Latitude: 46 15N     Longitude: 006 08E

WEATHER
 
SELECT A DAY
Number of Records: 317,191;   Date Range: 7/1/96 - 12/18/14
 
SHARE

PRINT THIS DATA

[ ← Previous Day ]
WEATHER ALMANAC - MARCH 29, 2013
[ Next Day → ]
[ °C ]   °F
Weather ElementAverageHighLow
Temperature38.9 °F42 °F (1:00 am)37.4 °F (11:50 am)
Dewpoint36.3 °F39.2 °F (9:50 am)34 °F (8:00 am)
Humidity89.3 %100 % (11:50 am)67 % (1:00 am)
Barometer29.72 in29.81 in (1:00 am)29.65 in (10:20 pm)
Wind Speed4.2 mph11.5 mph (1:00 am)
Weather ElementAverage
Visibility3.6 mi
Wind DirectionENE (71.7 °)

Weather ElementTotal
Precipitation---
Heating Degree Days25.3 (Base 65)
Averaged from 66 records on March 29, 2013
WEATHER CONDITIONS BREAKOUT
WIND DIRECTION BREAKOUT
WEATHER BY HOUR - MARCH 29, 2013
[ °C ]   °F
Local TimeTemperatureDewpointHumidityBarometerVisibilityWind DirectionWind SpeedGust SpeedPrecipitationEventsConditions
12:20 AM41.0 °F37.4 °F87 %29.77 in6.2 miSW (220°)5.8 mphOvercast
12:50 AM41.0 °F35.6 °F81 %29.77 in6.2 miSSW (210°)8.1 mphOvercast
1:00 AM42.0 °F35.0 °F67 %29.81 in10.0 miSW (230°)11.5 mphPartly Cloudy
1:20 AM41.0 °F35.6 °F81 %29.77 in6.2 miSW (230°)9.2 mphOvercast
1:50 AM41.0 °F37.4 °F87 %29.77 in6.2 miWSW (240°)10.4 mphOvercast
2:00 AM41.0 °F36.0 °F77 %29.80 inWest (260°)5.8 mph
2:50 AM41.0 °F37.4 °F87 %29.77 in6.2 miVariable3.5 mphOvercast
3:00 AM40.0 °F37.0 °F83 %29.80 inWest (280°)2.3 mph
3:20 AM41.0 °F37.4 °F87 %29.74 in5.6 miVariable2.3 mphOvercast
3:50 AM41.0 °F37.4 °F87 %29.74 in6.2 miVariable3.5 mphOvercast
4:20 AM41.0 °F37.4 °F87 %29.74 in5.0 miVariable2.3 mphOvercast
4:50 AM39.2 °F37.4 °F93 %29.74 in5.6 miVariable1.2 mphOvercast
5:00 AM40.0 °F35.0 °F74 %29.79 inWNW (300°)3.5 mph
5:20 AM39.2 °F37.4 °F93 %29.74 in6.2 miVariable1.2 mphOvercast
5:50 AM39.2 °F35.6 °F87 %29.74 in6.2 miVariable1.2 mphOvercast
6:00 AM40.0 °F35.0 °F75 %29.79 inWNW (290°)2.3 mph
6:20 AM39.2 °F35.6 °F87 %29.74 in4.3 miWSW (250°)2.3 mphMostly Cloudy
6:50 AM39.2 °F35.6 °F87 %29.74 in4.3 miVariable1.2 mphMostly Cloudy
7:00 AM40.0 °F36.0 °F79 %29.78 in4.0 miWest (270°)1.2 mphMist
7:20 AM39.2 °F35.6 °F87 %29.74 in4.3 miNorth (360°)1.2 mphMostly Cloudy
7:50 AM41.0 °F35.6 °F81 %29.71 in4.3 miCalmMostly Cloudy
8:00 AM41.0 °F34.0 °F69 %29.76 inNW (320°)2.3 mph
8:20 AM41.0 °F35.6 °F81 %29.71 in4.3 miVariable2.3 mphMostly Cloudy
8:50 AM41.0 °F35.6 °F81 %29.74 in4.3 miVariable1.2 mphLight Drizzle
9:00 AM41.0 °F35.0 °F73 %29.77 inNE (40°)3.5 mph
9:20 AM41.0 °F37.4 °F87 %29.74 in3.1 miENE (70°)4.6 mphRainLight Rain
9:50 AM41.0 °F39.2 °F93 %29.74 inVariable3.5 mphRainRain
10:20 AM39.2 °F37.4 °F93 %29.74 in2.2 miNE (50°)3.5 mphRainRain
10:50 AM39.2 °F37.4 °F93 %29.74 inVariable2.3 mphRainRain
11:00 AM40.0 °F37.0 °F87 %29.77 inNNE (20°)3.5 mph
11:20 AM39.2 °F37.4 °F93 %29.71 in1.9 miNNE (20°)3.5 mphRainRain
11:50 AM37.4 °F37.4 °F100 %29.71 in1.6 miNE (40°)6.9 mphRainRain
12:00 PM39.0 °F37.0 °F88 %29.76 inNE (40°)6.9 mph
12:20 PM37.4 °F35.6 °F93 %29.71 in1.6 miNE (50°)5.8 mphRainRain
12:50 PM37.4 °F37.4 °F100 %29.71 in1.6 miENE (60°)6.9 mphRainRain
1:00 PM38.0 °F36.0 °F91 %29.76 in2.0 miNE (50°)9.2 mphRainRain
1:20 PM37.4 °F35.6 °F93 %29.71 in1.7 miNNE (30°)8.1 mphRainLight Rain
1:50 PM37.4 °F35.6 °F93 %29.71 in1.9 miNE (40°)6.9 mphRainLight Rain
2:00 PM38.0 °F36.0 °F87 %29.75 inNE (50°)8.1 mph
2:20 PM37.4 °F35.6 °F93 %29.68 in1.6 miENE (60°)8.1 mphRainLight Rain
2:50 PM37.4 °F35.6 °F93 %29.68 in1.6 miNE (40°)6.9 mphRainLight Rain
3:00 PM38.0 °F36.0 °F91 %29.74 inNE (50°)8.1 mph
3:20 PM37.4 °F35.6 °F93 %29.68 in1.6 miNNE (30°)5.8 mphLight Drizzle
3:50 PM37.4 °F35.6 °F93 %29.68 in1.4 miNE (50°)6.9 mphLight Drizzle
4:20 PM37.4 °F35.6 °F93 %29.68 in1.5 miNE (40°)5.8 mphLight Drizzle
4:50 PM37.4 °F35.6 °F93 %29.68 in1.7 miNE (40°)3.5 mphLight Drizzle
5:00 PM38.0 °F35.0 °F86 %29.73 inNE (40°)5.8 mph
5:20 PM37.4 °F35.6 °F93 %29.68 in1.6 miNE (40°)3.5 mphRainLight Rain
5:50 PM37.4 °F35.6 °F93 %29.68 in1.6 miVariable3.5 mphMostly Cloudy
6:00 PM38.0 °F36.0 °F89 %29.73 inNE (50°)3.5 mph
6:20 PM37.4 °F37.4 °F100 %29.68 in1.8 miNNE (30°)3.5 mphMostly Cloudy
6:50 PM37.4 °F35.6 °F93 %29.68 in1.9 miVariable3.5 mphRainLight Rain
7:00 PM38.0 °F36.0 °F87 %29.74 in2.0 miNNE (30°)3.5 mphRainLight Drizzle
7:20 PM37.4 °F37.4 °F100 %29.68 inVariable1.2 mphRainLight Rain
7:50 PM37.4 °F35.6 °F93 %29.68 in2.2 miVariable2.3 mphRainLight Rain
8:00 PM38.0 °F36.0 °F89 %29.73 inNNE (20°)4.6 mph
8:20 PM37.4 °F35.6 °F93 %29.68 inNE (50°)3.5 mphRainLight Rain
8:50 PM37.4 °F37.4 °F100 %29.68 inVariable3.5 mphMostly Cloudy
9:00 PM38.0 °F36.0 °F89 %29.73 inNNE (30°)3.5 mph
9:20 PM37.4 °F37.4 °F100 %29.68 inVariable2.3 mphMostly Cloudy
9:50 PM37.4 °F37.4 °F100 %29.68 inNNE (30°)3.5 mphMostly Cloudy
10:20 PM37.4 °F37.4 °F100 %29.65 inENE (70°)4.6 mphMostly Cloudy
10:50 PM37.4 °F37.4 °F100 %29.65 inVariable1.2 mphMostly Cloudy
11:00 PM38.0 °F36.0 °F89 %29.71 inNorth (10°)2.3 mph
11:20 PM37.4 °F37.4 °F100 %29.65 inVariable1.2 mphMostly Cloudy
11:50 PM37.4 °F37.4 °F100 %29.65 inVariable1.2 mphOvercast
Hourly data recorded from LSGG, located miles away from Geneva, Switzerland







STORIES FROM OUR PARTNERS